Wind_Speed
27 26 22 23 19 24 27 26 23 25 23 23 26 27 30 32 32 22 4 5 7 9 10 18 16 15 17 20 19 18 22 22 25
30 28 28 29 31 30 31 33 26 32 30 24 19 22 31 36 25 16 20 15 5 8 13 20 18 16 15 13 18 19 26 31 30
38 38 35 34 39 39 37 38 38 35 28 28 27 27 29 31 26 24 20 20 21 21 18 23 20 21 19 20 21 26 36 37 32
44 42 40 40 46 45 42 43 41 36 32 31 30 25 22 32 35 31 25 37 35 30 29 30 34 30 34 25 25 34 42 45 46
47 48 43 45 47 50 52 47 45 40 40 35 30 24 26 30 28 36 43 46 39 43 40 42 45 43 38 39 39 45 49 49 47
42 43 42 44 52 53 55 54 53 47 42 40 31 31 30 31 35 31 26 44 60 57 52 58 51 50 48 50 48 54 45 47 43
35 36 39 39 44 52 59 60 56 49 46 35 28 32 28 22 16 20 44 50 48 50 52 49 53 49 50 52 55 52 53 54 54
33 35 38 39 43 45 54 63 60 51 50 44 38 51 34 35 39 42 38 47 57 47 42 50 52 60 67 75 75 69 66 59 63
30 41 43 38 45 49 50 55 58 53 47 46 47 48 47 42 49 52 64 57 59 65 67 65 70 70 73 67 72 72 80 76 75
30 32 40 37 43 46 48 48 45 58 51 48 49 54 50 50 52 60 70 79 77 77 78 77 77 76 79 79 82 85 88 87 78
28 31 31 40 45 51 53 55 54 47 56 57 60 65 66 64 61 67 72 78 88 92 91 91 89 89 90 95 89 91 88 82 76
31 30 30 31 43 45 50 52 55 54 50 62 66 70 77 78 76 73 77 83 84 85 84 91 95 100 100 92 89 91 92 88 83
31 37 43 38 33 37 42 48 52 54 62 66 77 82 81 85 86 93 91 90 94 97 103 105 102 100 104 108 105 107 110 113 111
39 40 37 39 37 36 41 50 58 61 68 70 79 86 93 93 91 96 97 103 105 104 102 111 118 113 117 115 116 113 118 121 118
49 46 49 56 50 49 49 50 51 58 65 76 79 84 93 105 109 101 99 106 110 110 117 116 115 116 110 112 112 115 119 120 123
56 59 61 51 49 52 55 55 54 53 55 56 62 73 80 88 106 107 108 106 111 110 108 104 109 109 110 117 115 120 124 129 129
63 59 51 50 52 52 47 47 49 51 52 52 54 58 63 65 66 72 81 85 86 90 99 101 100 101 101 103 107 111 116 123 127
50 47 50 51 49 48 48 49 50 52 54 57 59 62 63 64 66 70 74 76 80 84 89 90 91 97 102 102 106 112 116 120 116
51 49 51 49 48 48 49 49 51 54 58 61 64 65 66 66 67 68 69 71 76 81 84 88 92 95 97 99 100 102 102 99 96
51 50 48 48 49 48 50 54 56 57 59 59 58 59 61 63 64 66 69 72 76 79 86 92 97 96 93 91 86 87 82 78 74
Wind_Direction
259 263 266 259 269 267 238 240 245 251 265 272 256 276 304 318 337 337 292 233 254 257 273 273 266 258 263 271 270 284 290 290 303
259 254 254 260 265 261 252 238 247 259 268 279 260 261 278 297 296 320 298 314 252 267 298 278 265 262 250 273 258 272 288 283 281
250 249 249 248 257 258 253 259 262 258 267 273 267 279 289 287 296 287 270 303 305 305 289 272 265 255 259 273 282 284 305 306 294
257 257 255 252 253 257 255 249 261 272 267 269 270 270 276 282 262 295 259 280 296 285 273 272 258 265 269 276 288 299 311 311 308
261 263 261 261 256 259 258 255 253 260 265 267 274 270 270 268 265 266 235 262 272 276 252 256 250 255 264 272 283 302 309 307 298
263 260 258 256 258 258 252 254 254 256 263 269 276 279 257 254 263 239 222 255 263 262 258 253 255 255 273 286 285 294 296 303 304
262 261 260 254 254 253 248 252 255 255 261 262 262 261 262 223 171 243 221 233 245 247 244 245 255 265 276 284 284 289 298 299 301
278 270 268 261 257 249 247 248 251 250 255 252 255 246 251 222 205 233 224 229 236 249 262 257 266 273 273 277 282 288 302 301 299
276 266 270 265 262 261 251 252 253 251 254 245 249 247 244 241 235 261 252 251 255 258 264 272 275 283 284 292 293 298 303 303 301
272 261 259 250 254 259 260 260 260 254 247 243 242 242 248 252 254 256 254 252 259 261 268 275 279 284 287 288 293 295 297 299 300
316 294 262 257 255 257 258 261 260 254 240 243 242 241 252 261 262 258 257 259 258 259 269 272 271 283 288 289 296 295 297 294 292
308 312 309 282 262 261 262 267 268 269 259 245 247 249 247 257 262 265 265 266 265 270 271 271 276 283 290 293 290 292 293 294 291
296 311 312 305 287 276 272 269 272 271 266 264 256 251 258 263 264 265 266 264 269 270 274 285 286 290 291 292 293 292 293 293 291
306 307 303 301 289 279 270 264 263 266 258 262 262 260 257 263 268 269 269 270 274 277 278 279 280 279 286 287 288 289 289 290 290
300 301 298 301 296 291 289 280 271 264 260 259 262 261 259 262 265 267 267 269 274 274 276 276 278 282 284 287 288 288 288 288 290
298 296 301 291 288 289 291 288 285 281 274 268 266 263 262 264 262 261 266 270 271 277 278 279 279 282 282 283 285 285 286 286 286
295 298 294 292 293 291 286 284 284 285 285 285 282 277 273 273 272 270 268 271 274 277 278 280 281 283 283 283 284 284 287 285 285
292 290 289 290 290 291 290 289 287 286 284 281 279 279 279 280 280 279 278 279 278 277 276 278 280 279 280 281 282 283 282 282 283
289 287 286 285 283 283 284 283 283 284 284 284 284 284 284 283 283 283 283 282 283 284 283 283 284 283 283 283 283 282 283 283 282
287 284 281 278 279 279 281 283 284 284 284 285 286 285 286 286 287 287 287 288 289 290 292 294 293 291 290 288 285 283 282 280 278
Height
10928 10930 10933 10933 10934 10930 10933 10932 10935 10933 10934 10933 10932 10935 10935 10934 10935 10931 10924 10921 10922 10922 10925 10925 10928 10929 10930 10930 10933 10935 10934 10935 10936
10922 10923 10924 10927 10922 10923 10923 10925 10926 10926 10927 10927 10927 10929 10930 10930 10931 10928 10925 10924 10920 10920 10921 10921 10921 10923 10923 10925 10927 10927 10928 10926 10925
10912 10913 10916 10917 10914 10914 10915 10917 10915 10917 10919 10921 10919 10921 10921 10923 10921 10920 10920 10914 10919 10917 10915 10917 10915 10918 10919 10918 10918 10921 10921 10921 10922
10906 10908 10912 10908 10905 10905 10909 10910 10910 10908 10912 10914 10914 10913 10914 10913 10911 10910 10913 10906 10907 10909 10910 10908 10906 10908 10910 10910 10911 10911 10911 10911 10911
10898 10896 10902 10901 10898 10895 10894 10897 10901 10903 10903 10907 10910 10911 10908 10906 10902 10903 10911 10903 10901 10901 10898 10903 10896 10895 10896 10899 10898 10897 10899 10899 10899
10889 10888 10889 10888 10885 10883 10884 10887 10889 10895 10896 10895 10902 10901 10900 10896 10892 10892 10904 10894 10888 10889 10888 10891 10886 10883 10884 10886 10887 10886 10887 10890 10890
10879 10880 10878 10878 10876 10874 10874 10873 10878 10885 10886 10889 10886 10897 10897 10888 10886 10887 10887 10884 10881 10877 10876 10876 10874 10870 10870 10872 10873 10871 10871 10875 10875
10869 10867 10864 10865 10863 10863 10862 10862 10865 10872 10875 10875 10873 10877 10885 10881 10878 10874 10866 10858 10858 10861 10861 10862 10860 10858 10854 10853 10854 10854 10853 10857 10860
10859 10858 10856 10856 10852 10850 10852 10852 10851 10859 10860 10863 10863 10862 10865 10869 10867 10858 10857 10855 10855 10853 10849 10848 10844 10839 10837 10833 10833 10831 10831 10832 10838
10850 10849 10848 10845 10843 10839 10837 10838 10839 10844 10847 10848 10848 10849 10852 10853 10855 10851 10848 10845 10840 10838 10834 10830 10826 10822 10819 10816 10814 10813 10812 10812 10813
10840 10838 10839 10838 10837 10833 10830 10827 10829 10829 10831 10832 10834 10834 10834 10834 10834 10835 10833 10829 10827 10824 10818 10814 10811 10805 10801 10799 10792 10789 10788 10791 10790
10833 10831 10829 10829 10827 10823 10820 10817 10814 10814 10817 10818 10818 10817 10817 10815 10814 10813 10812 10811 10809 10806 10802 10800 10796 10789 10783 10778 10773 10767 10766 10767 10769
10822 10820 10819 10816 10813 10811 10808 10805 10803 10800 10798 10800 10801 10800 10800 10800 10798 10795 10793 10790 10787 10781 10775 10770 10765 10757 10750 10748 10743 10737 10737 10737 10740
10808 10806 10802 10799 10797 10796 10795 10796 10794 10790 10786 10784 10784 10782 10784 10784 10782 10779 10774 10769 10764 10761 10757 10754 10748 10745 10734 10728 10724 10717 10713 10706 10704
10796 10793 10789 10786 10782 10780 10778 10780 10779 10777 10773 10771 10766 10764 10765 10764 10762 10759 10754 10750 10745 10742 10737 10731 10725 10718 10712 10704 10693 10687 10680 10675 10669
10782 10778 10775 10772 10769 10765 10759 10757 10756 10755 10756 10756 10754 10754 10752 10747 10741 10736 10732 10727 10723 10717 10712 10706 10701 10694 10682 10678 10668 10658 10647 10647 10642
10768 10763 10758 10755 10750 10748 10746 10745 10743 10741 10738 10733 10731 10731 10731 10727 10719 10716 10715 10709 10702 10694 10685 10679 10670 10662 10656 10648 10639 10629 10619 10617 10612
10755 10751 10748 10744 10740 10736 10732 10729 10727 10726 10723 10720 10718 10715 10710 10703 10697 10693 10689 10683 10677 10672 10664 10657 10650 10640 10635 10627 10618 10607 10599 10589 10582
10741 10739 10735 10732 10730 10727 10723 10718 10715 10710 10706 10701 10697 10692 10687 10683 10678 10673 10668 10663 10655 10645 10640 10629 10620 10612 10605 10597 10589 10579 10568 10556 10546
10727 10724 10722 10720 10718 10715 10711 10708 10703 10697 10690 10684 10678 10671 10666 10661 10656 10651 10644 10637 10630 10623 10608 10593 10580 10573 10567 10562 10556 10545 10538 10530 10525